Location: �chenoz-la-M�line
(47.6009°N, 6.1354°E)
Time: 04:33:46
(UTC+00:00)

YAOGAN 6 - Pass Details

Date: 27 January 2021
Orbit: 465 x 502 km, 97.0° (Epoch: 27 February)

Event Time Altitude Azimuth Distance (km) Brightness Sun altitude
Rises 06:12:43 0° 2° (N) 2,614 6.1 -9.5°
Reaches altitude 10° 06:14:59 10° 351° (N) 1,724 5.1 -9.1°
Maximum altitude 06:18:12 29° 291° (WNW) 958 3.5 -8.6°
Drops below altitude 10° 06:21:25 10° 231° (SW) 1,708 5.0 -8.1°
Sets 06:23:40 0° 219° (SW) 2,584 6.0 -7.7°
